San Jose, Costa Rica

2:44 AM CST on December 17, 2017 (GMT -0600)
Juan Santamaria International

Weather History for MROC - July, 2012

Change the Weather History Date:

Monday, July 23, 2012

  Actual Average Record
Temperature  
Mean Temperature 76 °F -  
Max Temperature 84 °F 80 °F 87 °F (1997)
Min Temperature 67 °F 64 °F 60 °F (2006)
Cooling Degree Days 10    
Growing Degree Days 26 (Base 50)    
Moisture  
Dew Point 63 °F    
Average Humidity 65    
Maximum Humidity 94    
Minimum Humidity 34    
Precipitation  
Precipitation 0.00 in 0.33 in - ()
Sea Level Pressure  
Sea Level Pressure 29.97 in    
Wind  
Wind Speed 7 mph ()    
Max Wind Speed 14 mph    
Max Gust Speed 25 mph    
Visibility 8.3 miles    
Events      
Averages and records for this station are not official NWS values.
T = Trace of Precipitation, MM = Missing Value Source: Averaged Metar Reports

Daily Weather History Graph

Daily Weather History Graph

Search for Another Location

Airport or City:

Trip Planner

Search our weather history database for the weather conditions in past years. The results will help you decide how hot, cold, wet, or windy it might be!

Date:

Astronomy

Jul. 23, 2012 Rise Set
Actual Time 5:25 AM CST 6:01 PM CST
Civil Twilight 5:02 AM CST 6:24 PM CST
Nautical Twilight 4:36 AM CST 6:50 PM CST
Astronomical Twilight 4:09 AM CST 7:16 PM CST
Moon 9:09 AM CST (7/23) 9:27 PM CST (7/23)
Length of Visible Light 13h 21m
Length of Day
12h 36m
Waxing Crescent, 22% of the Moon is Illuminated
Jul 23
Waxing Crescent
Jul 26
First Quarter
Aug 1
Full
Aug 9
Last Quarter
Aug 17
New

Hourly Weather History & Observations

Time (CST) Temp. Heat Index Dew Point Humidity Pressure Visibility Wind Dir Wind Speed Gust Speed Precip Events Conditions
12:00 AM 72 °F - 63 °F 66% 29.85 in 12 mi East 8.1 mph - -  
12:00 AM 71.6 °F - 62.6 °F 73% 30.01 in - East 8.1 mph - N/A   Clear
1:00 AM 71.6 °F - 62.6 °F 73% 30.01 in - NE 6.9 mph - N/A   Clear
2:00 AM 71.6 °F - 64.4 °F 78% 29.99 in - NE 9.2 mph - N/A   Clear
3:00 AM 69 °F - 63 °F 75% 29.86 in 12 mi NE 4.6 mph - -   Partly Cloudy
3:00 AM 69.8 °F - 62.6 °F 78% 30.00 in - NE 4.6 mph - N/A   Clear
4:00 AM 71.6 °F - 62.6 °F 73% 29.99 in - NE 3.5 mph - N/A   Clear
5:00 AM 69.8 °F - 62.6 °F 78% 30.00 in 6.2 mi East 5.8 mph - N/A   Scattered Clouds
6:00 AM 72 °F - 63 °F 66% 29.83 in 12 mi East 10.4 mph - -   Partly Cloudy
6:00 AM 71.6 °F - 62.6 °F 73% 29.99 in - East 10.4 mph - N/A   Clear
7:00 AM 73.4 °F - 66.2 °F 78% 30.03 in - ESE 12.7 mph - N/A   Clear
8:00 AM 73.4 °F - 66.2 °F 78% 30.03 in 6.2 mi ESE 9.2 mph - N/A   Mostly Cloudy
9:00 AM 76 °F - 62 °F 52% 29.90 in 12 mi ESE 11.5 mph - -   Scattered Clouds
9:00 AM 77.0 °F - 60.8 °F 57% 30.04 in 6.2 mi ESE 11.5 mph 23.0 mph N/A   Scattered Clouds
10:00 AM 80.6 °F 81.1 °F 59.0 °F 48% 30.03 in 6.2 mi East 13.8 mph 25.3 mph N/A   Scattered Clouds
11:00 AM 80.6 °F 81.1 °F 59.0 °F 48% 30.01 in 6.2 mi ENE 12.7 mph 24.2 mph N/A   Mostly Cloudy
12:00 PM 84 °F - 60 °F 34% 29.81 in 12 mi East 10.4 mph - -   Overcast
12:00 PM 84.2 °F 84.4 °F 60.8 °F 45% 29.99 in 6.2 mi East 10.4 mph - N/A   Mostly Cloudy
1:00 PM 82.4 °F 82.9 °F 60.8 °F 48% 29.98 in 6.2 mi East 10.4 mph - N/A   Mostly Cloudy
2:00 PM 80.6 °F 81.5 °F 60.8 °F 51% 29.98 in - East 9.2 mph - N/A   Clear
3:00 PM 81 °F - 61 °F 41% 29.82 in 12 mi ESE 8.1 mph - -   Scattered Clouds
3:00 PM 80.6 °F 81.5 °F 60.8 °F 51% 29.98 in 6.2 mi ESE 8.1 mph - N/A   Mostly Cloudy
4:00 PM 80.6 °F 81.5 °F 60.8 °F 51% 29.98 in 6.2 mi SE 8.1 mph - N/A   Mostly Cloudy
5:00 PM 78.8 °F - 60.8 °F 54% 29.99 in 6.2 mi ESE 3.5 mph - N/A   Mostly Cloudy
6:00 PM 74 °F - 69 °F 81% 29.84 in 12 mi West 4.6 mph - -   Scattered Clouds
6:00 PM 73.4 °F - 69.8 °F 88% 30.01 in 6.2 mi West 4.6 mph - N/A   Mostly Cloudy
7:00 PM 71.6 °F - 69.8 °F 94% 30.04 in 6.2 mi NW 3.5 mph - N/A   Scattered Clouds
8:00 PM 71.6 °F - 62.6 °F 73% 30.05 in 6.2 mi ENE 6.9 mph - N/A   Scattered Clouds
9:00 PM 72 °F - 63 °F 66% 29.89 in 12 mi ENE 5.8 mph - -   Scattered Clouds
9:00 PM 71.6 °F - 62.6 °F 73% 30.06 in 6.2 mi ENE 5.8 mph - N/A   Scattered Clouds
10:00 PM 69.8 °F - 62.6 °F 78% 30.08 in - NE 5.8 mph - N/A   Clear
11:00 PM 71.6 °F - 62.6 °F 73% 30.06 in - East 4.6 mph - N/A   Clear